Weather in Yelasy

Russia / Mari El Republic     56°10′12″N   46°27′56″E
temp.,
°C
wind,
m/s
gust,
m/s
humid.,
%
clouds,
%
prec.,
mm/h
press.,
hPa
HPBL,
m
27 february, sat
sat2700:00−8ese4695100 2.2 996197
03:00−9ene3496100 3.1 996117
06:00−12ne479696 0.5 996232
09:00−12nne589498 0.9 998409
12:00−12nne6990100 0.1 1000605
15:00−13n6990100 0.2 1004718
18:00−15n41093100 0.1 1007392
21:00−18nnw479793 0.1 1008119
28 february, sun
sun2800:00−20nnw359934 0.0 100980
03:00−21nnw359942 0.0 101083
06:00−23nnw339928 0.0 101143
09:00−20nnw369752 0.0 1012191
12:00−14nnw469396 0.0 1012361
15:00−11nnw479198 0.1 1013546
18:00−15nnw3396100 0.0 101537
21:00−17nnw239991 0.1 101822
1 march, mon
mon100:00−19nnw2210083 0.0 101920
03:00−20nw2210079 0.1 102120
06:00−21nw1210070 0.0 102220
09:00−17w119667 0.0 102375
12:00−12w239074 0.0 1022320
15:00−10sw459387 0.1 1021358
18:00−12sw4996100 0.0 1018185
21:00−9sw61194100 0.1 1016280
2 march, tue
tue200:00−7sw71393100 0.1 1011386
03:00−5sw81495100 0.9 1006578
06:00−2sw71396100 1.4 1002581
09:000w51099100 3.1 1000566
12:000wnw58100100 0.7 998569
15:000wnw59100100 0.9 999582
18:00−1nw51291100 0.6 1000511
21:00−2nw5119699 0.8 1001459
3 march, wed
wed300:00−3nw5109499 0.3 1002491
03:00−6wnw4109698 0.4 1002283
06:00−4nw499696 0.4 1003449
09:00−4nw699597 0.9 1005538
12:00−2nnw71092100 0.4 1007806
15:00−4nnw61084100 0.5 1009900
18:00−7nw5119022 0.0 1010258
21:00−8nw5119248 0.0 1012254